Regional Weather Roundup
Issued by NWS Sioux Falls, SD

Home | Current Version | Previous Version | Text Only | Print | Product List | Glossary On
Versions: 1 2 3 4 5 6 7 8 9 10 11 12 13 14 15 16 17 18 19 20 21 22 23 24 25 26 27 28 29 30 31 32 33 34 35 36 37 38 39 40 41 42 43 44 45 46 47 48 49 50
000
ASUS43 KFSD 300310
RWRFSD

WEATHER ROUNDUP FOR SE SOUTH DAKOTA/SW MINNESOTA/NW IOWA
NATIONAL WEATHER SERVICE SIOUX FALLS SD
1000 PM CDT SUN MAY 29 2016

NOTE: "FAIR" INDICATES FEW OR NO CLOUDS BELOW 12,000 FEET WITH NO
SIGNIFICANT WEATHER AND OR OBSTRUCTIONS TO VISIBILITY.


SDZ038>040-050-052>070-300400-
SOUTHEAST SOUTH DAKOTA

CITY           SKY/WX    TMP DP  RH WIND       PRES   REMARKS
BROOKINGS      CLEAR     63  52  67 SW3       30.02R
CHAMBERLAIN    CLOUDY    69  60  73 SE7       29.99S
HURON          CLEAR     68  51  54 S7        29.98R
MADISON        FAIR      64  55  72 S5        30.03R
MITCHELL       CLEAR     68  58  70 SE5       30.01R
SIOUX FALLS    CLEAR     59  54  83 CALM      30.03R
WINNER         FAIR      67  56  67 SE10      29.98S
YANKTON        CLEAR     68  57  68 NE6       30.00R
$$

MNZ071-072-080-081-089-090-097-098-300400-
SOUTHWEST MINNESOTA

CITY           SKY/WX    TMP DP  RH WIND       PRES   REMARKS
FAIRMONT       CLEAR     68  48  49 W7        30.01R
JACKSON        CLEAR     64  50  59 CALM      30.04R
LUVERNE        CLEAR     63  52  67 CALM      30.04R
MARSHALL       CLEAR     65  52  62 SW7       30.00R
MONTEVIDEO     CLEAR     66  45  45 W3        29.99R
PIPESTONE      CLEAR     66  54  63 CALM      30.04R
REDWOOD FALLS  CLEAR     70  44  39 W3        29.98R
TRACY          CLEAR     66  53  61 SW5       30.01R
WINDOM         CLEAR     64  54  68 CALM      30.02R
WORTHINGTON    CLEAR     66  52  60 SW6       30.04R
$$

IAZ001>003-012>014-020>022-031-032-NEZ013-014-SDZ071-300400-
NORTHWEST IOWA

CITY           SKY/WX    TMP DP  RH WIND       PRES   REMARKS
CHEROKEE       CLEAR     60  58  95 CALM      30.04R
DENISON        CLOUDY    68  59  73 CALM      30.01R
ESTHERVILLE    CLEAR     63  56  78 W6        30.03R
LE MARS        CLEAR     66  59  77 CALM      30.04R
ORANGE CITY    CLEAR     72  52  49 CALM      30.04R
SHELDON        CLEAR     64  57  77 CALM      30.03R
SIOUX CITY     CLOUDY    74  55  51 NE7       30.01R
SPENCER        CLEAR     63  56  78 S3        30.03R
STORM LAKE     CLEAR     66  54  63 NE3       30.05R
$$

ABBREVIATIONS USED IN REMARKS
   TC - TEMPERATURE IN CELSIUS
  WCI - WIND CHILL INDEX
   HX - HEAT INDEX
  VSB - VISIBILITY





USA.gov is the U.S. government's official web portal to all federal, state and local government web resources and services.